Time,TemperatureF,DewpointF,PressureIn,WindDirection,WindDirectionDegrees,WindSpeedMPH,WindSpeedGustMPH,Humidity,HourlyPrecipIn,Conditions,Clouds,dailyrainin,SoftwareType,DateUTC
2013-08-12 00:01:00,53.6,53.0,29.88,NW,315,1.6,3.1,98,0.00,,,0.00,pywws,2013-08-11 23:01:00,
2013-08-12 00:05:00,53.4,52.9,29.88,West,270,0.7,2.2,98,0.00,,,0.00,pywws,2013-08-11 23:05:00,
2013-08-12 00:10:00,53.4,52.9,29.88,NW,315,0.7,3.1,98,0.00,,,0.00,pywws,2013-08-11 23:10:00,
2013-08-12 00:15:00,53.2,53.0,29.88,North,0,0.0,2.2,99,0.00,,,0.00,pywws,2013-08-11 23:15:00,
2013-08-12 00:20:00,53.2,53.0,29.88,North,0,0.7,3.1,99,0.00,,,0.00,pywws,2013-08-11 23:20:00,
2013-08-12 00:25:00,53.2,53.0,29.88,NW,315,0.7,3.1,99,0.00,,,0.00,pywws,2013-08-11 23:25:00,
2013-08-12 00:30:00,53.2,53.0,29.88,North,0,0.0,2.2,99,0.00,,,0.00,pywws,2013-08-11 23:30:00,
2013-08-12 00:35:00,53.2,53.0,29.87,South,180,0.7,3.1,99,0.00,,,0.00,pywws,2013-08-11 23:35:00,
2013-08-12 00:40:00,53.1,52.8,29.87,NW,315,0.7,3.1,99,0.00,,,0.00,pywws,2013-08-11 23:40:00,
2013-08-12 00:45:00,53.1,52.8,29.88,NW,315,0.7,2.2,99,0.00,,,0.00,pywws,2013-08-11 23:45:00,
2013-08-12 00:50:00,53.1,52.8,29.87,NW,315,0.0,0.7,99,0.00,,,0.00,pywws,2013-08-11 23:50:00,
2013-08-12 01:01:00,52.9,52.6,29.87,East,90,0.7,3.1,99,0.00,,,0.00,pywws,2013-08-12 00:01:00,
2013-08-12 01:05:00,52.9,52.6,29.87,NW,315,0.0,2.2,99,0.00,,,0.00,pywws,2013-08-12 00:05:00,
2013-08-12 01:10:00,52.9,52.6,29.87,North,0,0.0,0.7,99,0.00,,,0.00,pywws,2013-08-12 00:10:00,
2013-08-12 01:15:00,52.7,52.4,29.87,North,0,0.7,4.5,99,0.00,,,0.00,pywws,2013-08-12 00:15:00,
2013-08-12 01:20:00,52.9,52.6,29.87,North,0,0.0,1.6,99,0.00,,,0.00,pywws,2013-08-12 00:20:00,
2013-08-12 01:25:00,52.7,52.4,29.87,NE,45,1.6,4.5,99,0.00,,,0.00,pywws,2013-08-12 00:25:00,
2013-08-12 01:30:00,52.7,52.4,29.87,NW,315,0.7,1.6,99,0.00,,,0.00,pywws,2013-08-12 00:30:00,
2013-08-12 01:35:00,52.7,52.4,29.87,NE,45,0.7,2.2,99,0.00,,,0.00,pywws,2013-08-12 00:35:00,
2013-08-12 01:40:00,52.5,52.2,29.87,East,90,0.7,3.1,99,0.00,,,0.00,pywws,2013-08-12 00:40:00,
2013-08-12 01:45:00,52.5,52.2,29.87,NW,315,0.0,1.6,99,0.00,,,0.00,pywws,2013-08-12 00:45:00,
2013-08-12 01:50:00,52.5,52.2,29.87,NW,315,0.7,2.2,99,0.00,,,0.00,pywws,2013-08-12 00:50:00,
2013-08-12 02:01:00,52.3,52.1,29.87,East,90,0.7,3.8,99,0.00,,,0.00,pywws,2013-08-12 01:01:00,
2013-08-12 02:05:00,52.3,52.1,29.87,NW,315,0.7,3.1,99,0.00,,,0.00,pywws,2013-08-12 01:05:00,
2013-08-12 02:10:00,52.3,52.1,29.87,NW,315,0.7,3.1,99,0.00,,,0.00,pywws,2013-08-12 01:10:00,
2013-08-12 02:15:00,52.3,52.1,29.87,NW,315,0.7,3.1,99,0.00,,,0.00,pywws,2013-08-12 01:15:00,
2013-08-12 02:20:00,52.3,52.1,29.86,SE,135,0.7,3.1,99,0.00,,,0.00,pywws,2013-08-12 01:20:00,
2013-08-12 02:25:00,52.3,52.1,29.87,SW,225,0.7,3.8,99,0.00,,,0.00,pywws,2013-08-12 01:25:00,
2013-08-12 02:30:00,52.3,52.1,29.86,North,0,0.7,3.1,99,0.00,,,0.00,pywws,2013-08-12 01:30:00,
2013-08-12 02:35:00,52.3,52.1,29.87,NW,315,0.0,1.6,99,0.00,,,0.00,pywws,2013-08-12 01:35:00,
2013-08-12 02:40:00,52.3,52.1,29.86,NW,315,0.7,2.2,99,0.00,,,0.00,pywws,2013-08-12 01:40:00,
2013-08-12 02:45:00,52.5,52.2,29.86,North,0,1.6,3.8,99,0.00,,,0.00,pywws,2013-08-12 01:45:00,
2013-08-12 02:50:00,52.5,52.2,29.86,North,0,0.7,2.2,99,0.00,,,0.00,pywws,2013-08-12 01:50:00,
2013-08-12 03:00:00,52.5,52.2,29.86,SW,225,0.7,1.6,99,0.00,,,0.00,pywws,2013-08-12 02:00:00,
2013-08-12 03:05:00,52.3,52.1,29.86,NE,45,0.0,1.6,99,0.00,,,0.00,pywws,2013-08-12 02:05:00,
2013-08-12 03:10:00,52.2,51.9,29.86,NE,45,0.0,2.2,99,0.00,,,0.00,pywws,2013-08-12 02:10:00,
2013-08-12 03:15:00,52.2,51.9,29.86,NW,315,0.0,2.2,99,0.00,,,0.00,pywws,2013-08-12 02:15:00,
2013-08-12 03:20:00,52.0,51.7,29.86,North,0,0.0,1.6,99,0.00,,,0.00,pywws,2013-08-12 02:20:00,
2013-08-12 03:25:00,51.8,51.5,29.86,NW,315,0.7,2.2,99,0.00,,,0.00,pywws,2013-08-12 02:25:00,
2013-08-12 03:30:00,51.8,51.5,29.87,East,90,0.7,3.8,99,0.00,,,0.00,pywws,2013-08-12 02:30:00,
2013-08-12 03:35:00,51.8,51.5,29.86,NW,315,0.0,1.6,99,0.00,,,0.00,pywws,2013-08-12 02:35:00,
2013-08-12 03:40:00,52.0,51.7,29.86,West,270,0.0,3.1,99,0.00,,,0.00,pywws,2013-08-12 02:40:00,
2013-08-12 03:45:00,51.8,51.5,29.86,NW,315,0.0,2.2,99,0.00,,,0.00,pywws,2013-08-12 02:45:00,
2013-08-12 03:50:00,51.8,51.5,29.86,NW,315,0.0,0.7,99,0.00,,,0.00,pywws,2013-08-12 02:50:00,
2013-08-12 04:00:00,51.8,51.5,29.86,NW,315,0.0,0.7,99,0.00,,,0.00,pywws,2013-08-12 03:00:00,
2013-08-12 04:05:00,51.6,51.3,29.86,South,180,0.0,1.6,99,0.00,,,0.00,pywws,2013-08-12 03:05:00,
2013-08-12 04:10:00,51.4,51.2,29.86,North,0,0.0,0.7,99,0.00,,,0.00,pywws,2013-08-12 03:10:00,
2013-08-12 04:15:00,51.3,51.0,29.86,North,0,0.0,0.7,99,0.00,,,0.00,pywws,2013-08-12 03:15:00,
2013-08-12 04:20:00,51.3,51.0,29.86,NW,315,0.0,0.7,99,0.00,,,0.00,pywws,2013-08-12 03:20:00,
2013-08-12 04:25:00,51.3,51.0,29.86,NW,315,0.7,1.6,99,0.00,,,0.00,pywws,2013-08-12 03:25:00,
2013-08-12 04:30:00,51.3,51.0,29.86,North,0,0.0,1.6,99,0.00,,,0.00,pywws,2013-08-12 03:30:00,
2013-08-12 04:35:00,51.3,51.0,29.86,NW,315,0.7,2.2,99,0.00,,,0.00,pywws,2013-08-12 03:35:00,
2013-08-12 04:40:00,51.4,51.2,29.86,NE,45,1.6,3.1,99,0.00,,,0.00,pywws,2013-08-12 03:40:00,
2013-08-12 04:45:00,51.6,51.3,29.86,North,0,0.0,1.6,99,0.00,,,0.00,pywws,2013-08-12 03:45:00,
2013-08-12 04:50:00,51.6,51.3,29.86,North,0,0.0,0.7,99,0.00,,,0.00,pywws,2013-08-12 03:50:00,
2013-08-12 05:01:00,51.8,51.5,29.85,North,0,0.7,1.6,99,0.00,,,0.00,pywws,2013-08-12 04:01:00,
2013-08-12 05:05:00,52.0,51.7,29.85,North,0,0.7,2.2,99,0.00,,,0.00,pywws,2013-08-12 04:05:00,
2013-08-12 05:10:00,52.0,51.7,29.85,NW,315,0.7,1.6,99,0.00,,,0.00,pywws,2013-08-12 04:10:00,
2013-08-12 05:15:00,52.0,51.7,29.85,North,0,0.0,2.2,99,0.00,,,0.00,pywws,2013-08-12 04:15:00,
2013-08-12 05:20:00,52.2,51.9,29.86,NW,315,1.6,2.2,99,0.00,,,0.00,pywws,2013-08-12 04:20:00,
2013-08-12 05:25:00,52.2,51.9,29.86,NW,315,0.0,1.6,99,0.00,,,0.00,pywws,2013-08-12 04:25:00,
2013-08-12 05:30:00,52.3,52.1,29.86,North,0,0.0,1.6,99,0.00,,,0.00,pywws,2013-08-12 04:30:00,
2013-08-12 05:35:00,52.5,52.2,29.86,NW,315,0.0,1.6,99,0.00,,,0.00,pywws,2013-08-12 04:35:00,
2013-08-12 05:40:00,52.5,52.2,29.85,NW,315,0.7,2.2,99,0.00,,,0.00,pywws,2013-08-12 04:40:00,
2013-08-12 05:45:00,52.5,52.2,29.85,NW,315,0.0,2.2,99,0.00,,,0.00,pywws,2013-08-12 04:45:00,
2013-08-12 05:50:00,52.5,52.2,29.86,NW,315,0.7,2.2,99,0.00,,,0.00,pywws,2013-08-12 04:50:00,
2013-08-12 06:00:00,52.5,52.2,29.86,NW,315,0.0,1.6,99,0.00,,,0.00,pywws,2013-08-12 05:00:00,
2013-08-12 06:05:00,52.3,52.1,29.85,NW,315,0.0,1.6,99,0.00,,,0.00,pywws,2013-08-12 05:05:00,
2013-08-12 06:10:00,52.2,51.9,29.86,NW,315,0.0,1.6,99,0.00,,,0.00,pywws,2013-08-12 05:10:00,
2013-08-12 06:15:00,52.3,52.1,29.85,NW,315,0.7,1.6,99,0.00,,,0.00,pywws,2013-08-12 05:15:00,
2013-08-12 06:20:00,52.3,52.1,29.85,West,270,0.7,2.2,99,0.00,,,0.00,pywws,2013-08-12 05:20:00,
2013-08-12 06:25:00,52.5,52.2,29.85,North,0,0.7,1.6,99,0.00,,,0.00,pywws,2013-08-12 05:25:00,
2013-08-12 06:30:00,52.7,52.4,29.85,North,0,0.7,2.2,99,0.00,,,0.00,pywws,2013-08-12 05:30:00,
2013-08-12 06:35:00,52.9,52.6,29.85,NW,315,0.0,0.7,99,0.00,,,0.00,pywws,2013-08-12 05:35:00,
2013-08-12 06:40:00,53.1,52.8,29.85,NW,315,0.0,1.6,99,0.00,,,0.00,pywws,2013-08-12 05:40:00,
2013-08-12 06:45:00,53.1,52.8,29.86,NW,315,0.0,1.6,99,0.00,,,0.00,pywws,2013-08-12 05:45:00,
2013-08-12 06:50:00,53.1,52.8,29.86,NW,315,0.0,1.6,99,0.00,,,0.00,pywws,2013-08-12 05:50:00,
2013-08-12 07:00:00,53.1,52.8,29.86,NW,315,0.7,2.2,99,0.00,,,0.00,pywws,2013-08-12 06:00:00,
2013-08-12 07:05:00,53.2,53.0,29.86,NE,45,0.0,1.6,99,0.00,,,0.00,pywws,2013-08-12 06:05:00,
2013-08-12 07:10:00,53.6,53.3,29.86,SE,135,0.0,0.7,99,0.00,,,0.00,pywws,2013-08-12 06:10:00,
2013-08-12 07:15:00,54.0,53.7,29.86,NE,45,0.7,3.1,99,0.00,,,0.00,pywws,2013-08-12 06:15:00,
2013-08-12 07:20:00,54.1,53.9,29.86,NW,315,0.0,0.7,99,0.00,,,0.00,pywws,2013-08-12 06:20:00,
2013-08-12 07:25:00,54.1,53.9,29.86,NW,315,0.0,0.7,99,0.00,,,0.00,pywws,2013-08-12 06:25:00,
2013-08-12 07:30:00,54.3,54.0,29.86,NE,45,0.7,3.8,99,0.00,,,0.00,pywws,2013-08-12 06:30:00,
2013-08-12 07:35:00,55.0,54.8,29.86,East,90,1.6,3.1,99,0.00,,,0.00,pywws,2013-08-12 06:35:00,
2013-08-12 07:40:00,55.6,55.3,29.86,East,90,0.0,2.2,99,0.00,,,0.00,pywws,2013-08-12 06:40:00,
2013-08-12 07:45:00,57.0,56.7,29.86,East,90,0.7,2.2,99,0.00,,,0.00,pywws,2013-08-12 06:45:00,
2013-08-12 07:50:00,57.2,56.9,29.86,ESE,112,0.0,2.2,99,0.00,,,0.00,pywws,2013-08-12 06:50:00,
2013-08-12 08:00:00,57.0,56.5,29.87,North,0,0.7,2.2,98,0.00,,,0.00,pywws,2013-08-12 07:00:00,
2013-08-12 08:05:00,57.0,56.5,29.87,NE,45,0.0,1.6,98,0.00,,,0.00,pywws,2013-08-12 07:05:00,
2013-08-12 08:10:00,57.0,56.2,29.87,NE,45,0.7,2.2,97,0.00,,,0.00,pywws,2013-08-12 07:10:00,
2013-08-12 08:15:00,57.0,56.2,29.87,North,0,0.7,1.6,97,0.00,,,0.00,pywws,2013-08-12 07:15:00,
2013-08-12 08:20:00,57.0,56.2,29.87,NW,315,0.0,1.6,97,0.00,,,0.00,pywws,2013-08-12 07:20:00,
2013-08-12 08:25:00,57.0,56.2,29.88,East,90,0.0,1.6,97,0.00,,,0.00,pywws,2013-08-12 07:25:00,
2013-08-12 08:30:00,57.2,56.4,29.87,East,90,0.7,2.2,97,0.00,,,0.00,pywws,2013-08-12 07:30:00,
2013-08-12 08:35:00,57.4,56.2,29.87,NE,45,0.7,3.1,96,0.00,,,0.00,pywws,2013-08-12 07:35:00,
2013-08-12 08:40:00,57.4,56.0,29.87,North,0,2.2,3.8,95,0.00,,,0.00,pywws,2013-08-12 07:40:00,
2013-08-12 08:45:00,57.6,56.1,29.87,North,0,0.7,1.6,95,0.00,,,0.00,pywws,2013-08-12 07:45:00,
2013-08-12 08:50:00,57.7,56.3,29.88,NE,45,2.2,3.8,95,0.00,,,0.00,pywws,2013-08-12 07:50:00,
2013-08-12 09:00:00,57.7,56.3,29.88,NW,315,0.7,3.8,95,0.00,,,0.00,pywws,2013-08-12 08:00:00,
2013-08-12 09:05:00,57.9,56.5,29.88,North,0,0.0,3.8,95,0.00,,,0.00,pywws,2013-08-12 08:05:00,
2013-08-12 09:10:00,58.1,56.7,29.88,West,270,0.0,0.7,95,0.00,,,0.00,pywws,2013-08-12 08:10:00,
2013-08-12 09:15:00,58.5,56.7,29.88,NE,45,0.0,1.6,94,0.00,,,0.00,pywws,2013-08-12 08:15:00,
2013-08-12 09:20:00,58.6,56.6,29.88,East,90,1.6,4.5,93,0.00,,,0.00,pywws,2013-08-12 08:20:00,
2013-08-12 09:25:00,58.8,56.8,29.88,East,90,0.7,2.2,93,0.00,,,0.00,pywws,2013-08-12 08:25:00,
2013-08-12 09:30:00,59.2,57.2,29.88,East,90,1.6,3.1,93,0.00,,,0.00,pywws,2013-08-12 08:30:00,
2013-08-12 09:35:00,59.2,56.6,29.88,East,90,0.7,3.1,91,0.00,,,0.00,pywws,2013-08-12 08:35:00,
2013-08-12 09:40:00,59.4,56.7,29.88,East,90,0.0,3.1,91,0.00,,,0.00,pywws,2013-08-12 08:40:00,
2013-08-12 09:45:00,59.7,57.1,29.88,SW,225,0.0,1.6,91,0.00,,,0.00,pywws,2013-08-12 08:45:00,
2013-08-12 09:50:00,60.3,57.6,29.89,East,90,0.7,2.2,91,0.00,,,0.00,pywws,2013-08-12 08:50:00,
2013-08-12 10:00:00,61.3,58.1,29.89,SE,135,2.2,3.1,89,0.00,,,0.00,pywws,2013-08-12 09:00:00,
2013-08-12 10:05:00,62.1,57.5,29.89,ENE,68,0.7,3.1,85,0.00,,,0.00,pywws,2013-08-12 09:05:00,
2013-08-12 10:10:00,61.7,56.8,29.88,North,0,0.0,1.6,84,0.00,,,0.00,pywws,2013-08-12 09:10:00,
2013-08-12 10:15:00,62.1,57.5,29.89,East,90,0.7,3.1,85,0.00,,,0.00,pywws,2013-08-12 09:15:00,
2013-08-12 10:20:00,63.3,58.4,29.88,NW,315,0.0,1.6,84,0.00,,,0.00,pywws,2013-08-12 09:20:00,
2013-08-12 10:25:00,63.5,57.9,29.88,East,90,0.7,2.2,82,0.00,,,0.00,pywws,2013-08-12 09:25:00,
2013-08-12 10:30:00,64.2,58.6,29.89,East,90,1.6,3.1,82,0.00,,,0.00,pywws,2013-08-12 09:30:00,
2013-08-12 10:35:00,65.7,59.3,29.88,NW,315,0.0,0.0,80,0.00,,,0.00,pywws,2013-08-12 09:35:00,
2013-08-12 10:40:00,68.4,59.7,29.88,North,0,1.6,3.8,74,0.00,,,0.00,pywws,2013-08-12 09:40:00,
2013-08-12 10:45:00,67.3,57.9,29.89,NE,45,1.6,2.2,72,0.00,,,0.00,pywws,2013-08-12 09:45:00,
2013-08-12 10:50:00,67.8,59.2,29.88,NNW,338,2.2,3.8,74,0.00,,,0.00,pywws,2013-08-12 09:50:00,
2013-08-12 11:00:00,68.9,60.6,29.88,West,270,0.0,0.7,75,0.00,,,0.00,pywws,2013-08-12 10:00:00,
2013-08-12 11:05:00,70.3,58.9,29.88,East,90,1.6,3.1,67,0.00,,,0.00,pywws,2013-08-12 10:05:00,
2013-08-12 11:10:00,69.8,58.3,29.88,East,90,0.7,2.2,67,0.00,,,0.00,pywws,2013-08-12 10:10:00,
2013-08-12 11:15:00,69.4,56.7,29.88,East,90,2.2,3.1,64,0.00,,,0.00,pywws,2013-08-12 10:15:00,
2013-08-12 11:20:00,68.4,57.8,29.88,East,90,0.7,3.8,69,0.00,,,0.00,pywws,2013-08-12 10:20:00,
2013-08-12 11:25:00,67.6,57.1,29.88,East,90,0.7,3.1,69,0.00,,,0.00,pywws,2013-08-12 10:25:00,
2013-08-12 11:30:00,67.3,57.2,29.88,NE,45,0.7,2.2,70,0.00,,,0.00,pywws,2013-08-12 10:30:00,
2013-08-12 11:35:00,67.6,57.1,29.88,NE,45,1.6,3.1,69,0.00,,,0.00,pywws,2013-08-12 10:35:00,
2013-08-12 11:40:00,69.3,57.8,29.88,South,180,1.6,3.1,67,0.00,,,0.00,pywws,2013-08-12 10:40:00,
2013-08-12 11:45:00,70.9,57.2,29.88,East,90,3.1,5.4,62,0.00,,,0.00,pywws,2013-08-12 10:45:00,
2013-08-12 11:50:00,70.7,55.7,29.88,South,180,4.5,7.6,59,0.00,,,0.00,pywws,2013-08-12 10:50:00,
2013-08-12 12:00:00,70.5,56.9,29.88,East,90,1.6,3.8,62,0.00,,,0.00,pywws,2013-08-12 11:00:00,
2013-08-12 12:05:00,71.4,57.7,29.88,SE,135,0.7,3.8,62,0.00,,,0.00,pywws,2013-08-12 11:05:00,
2013-08-12 12:10:00,72.0,57.8,29.88,North,0,0.7,2.2,61,0.00,,,0.00,pywws,2013-08-12 11:10:00,
2013-08-12 12:15:00,72.3,55.7,29.88,NE,45,0.7,2.2,56,0.00,,,0.00,pywws,2013-08-12 11:15:00,
2013-08-12 12:20:00,71.2,53.7,29.88,North,0,0.0,2.2,54,0.00,,,0.00,pywws,2013-08-12 11:20:00,
2013-08-12 12:25:00,69.3,54.3,29.88,North,0,0.7,2.2,59,0.00,,,0.00,pywws,2013-08-12 11:25:00,
2013-08-12 12:30:00,67.5,53.5,29.88,NE,45,1.6,3.8,61,0.00,,,0.00,pywws,2013-08-12 11:30:00,
2013-08-12 12:35:00,66.4,53.0,29.88,East,90,0.7,3.8,62,0.00,,,0.00,pywws,2013-08-12 11:35:00,
2013-08-12 12:40:00,66.4,53.4,29.88,South,180,0.7,3.1,63,0.00,,,0.00,pywws,2013-08-12 11:40:00,
2013-08-12 12:45:00,68.0,53.6,29.88,SE,135,0.7,2.2,60,0.00,,,0.00,pywws,2013-08-12 11:45:00,
2013-08-12 12:50:00,68.5,52.7,29.88,NNW,338,2.2,4.5,57,0.00,,,0.00,pywws,2013-08-12 11:50:00,
2013-08-12 13:00:00,70.0,52.6,29.88,SE,135,3.8,6.9,54,0.00,,,0.00,pywws,2013-08-12 12:00:00,
2013-08-12 13:05:00,71.6,54.1,29.88,SE,135,2.2,4.5,54,0.00,,,0.00,pywws,2013-08-12 12:05:00,
2013-08-12 13:10:00,72.0,54.9,29.88,East,90,1.6,3.8,55,0.00,,,0.00,pywws,2013-08-12 12:10:00,
2013-08-12 13:15:00,73.0,55.4,29.87,East,90,1.6,3.8,54,0.00,,,0.00,pywws,2013-08-12 12:15:00,
2013-08-12 13:20:00,73.4,55.2,29.87,NE,45,1.6,4.5,53,0.00,,,0.00,pywws,2013-08-12 12:20:00,
2013-08-12 13:25:00,74.1,54.8,29.87,NE,45,3.1,4.5,51,0.00,,,0.00,pywws,2013-08-12 12:25:00,
2013-08-12 13:30:00,73.0,53.3,29.87,SE,135,2.2,4.5,50,0.00,,,0.00,pywws,2013-08-12 12:30:00,
2013-08-12 13:35:00,71.6,53.5,29.87,South,180,1.6,3.8,53,0.00,,,0.00,pywws,2013-08-12 12:35:00,
2013-08-12 13:40:00,71.8,54.2,29.86,East,90,0.7,2.2,54,0.00,,,0.00,pywws,2013-08-12 12:40:00,
2013-08-12 13:45:00,71.1,52.5,29.87,North,0,2.2,3.8,52,0.00,,,0.00,pywws,2013-08-12 12:45:00,
2013-08-12 13:50:00,70.9,53.9,29.86,East,90,0.7,3.8,55,0.00,,,0.00,pywws,2013-08-12 12:50:00,
2013-08-12 14:00:00,73.6,55.9,29.86,North,0,0.7,2.2,54,0.00,,,0.00,pywws,2013-08-12 13:00:00,
2013-08-12 14:05:00,72.1,53.5,29.87,NE,45,1.6,4.5,52,0.00,,,0.00,pywws,2013-08-12 13:05:00,
2013-08-12 14:10:00,71.8,53.2,29.87,SE,135,1.6,3.1,52,0.00,,,0.00,pywws,2013-08-12 13:10:00,
2013-08-12 14:15:00,70.5,52.0,29.86,SE,135,2.2,4.5,52,0.00,,,0.00,pywws,2013-08-12 13:15:00,
2013-08-12 14:20:00,70.7,54.7,29.87,ENE,68,2.2,4.5,57,0.00,,,0.00,pywws,2013-08-12 13:20:00,
2013-08-12 14:25:00,70.7,54.2,29.87,East,90,2.2,4.5,56,0.00,,,0.00,pywws,2013-08-12 13:25:00,
2013-08-12 14:30:00,71.2,54.2,29.87,East,90,2.2,3.8,55,0.00,,,0.00,pywws,2013-08-12 13:30:00,
2013-08-12 14:35:00,72.0,53.9,29.87,NE,45,2.2,6.0,53,0.00,,,0.00,pywws,2013-08-12 13:35:00,
2013-08-12 14:40:00,71.8,53.7,29.87,East,90,2.2,3.8,53,0.00,,,0.00,pywws,2013-08-12 13:40:00,
2013-08-12 14:45:00,70.3,52.9,29.87,East,90,0.7,2.2,54,0.00,,,0.00,pywws,2013-08-12 13:45:00,
2013-08-12 14:50:00,69.3,52.4,29.87,East,90,1.6,4.5,55,0.00,,,0.00,pywws,2013-08-12 13:50:00,
2013-08-12 15:00:00,67.6,51.4,29.88,NE,45,1.6,3.1,56,0.00,,,0.00,pywws,2013-08-12 14:00:00,
2013-08-12 15:05:00,70.7,54.2,29.87,NW,315,1.6,3.8,56,0.00,,,0.00,pywws,2013-08-12 14:05:00,
2013-08-12 15:10:00,71.8,53.7,29.87,NE,45,2.2,4.5,53,0.00,,,0.00,pywws,2013-08-12 14:10:00,
2013-08-12 15:15:00,70.5,53.6,29.87,North,0,2.2,5.4,55,0.00,,,0.00,pywws,2013-08-12 14:15:00,
2013-08-12 15:20:00,68.5,51.7,29.88,East,90,2.2,6.0,55,0.00,,,0.00,pywws,2013-08-12 14:20:00,
2013-08-12 15:25:00,67.5,52.6,29.88,SW,225,1.6,4.5,59,0.00,,,0.00,pywws,2013-08-12 14:25:00,
2013-08-12 15:30:00,68.0,53.6,29.88,NE,45,0.7,3.1,60,0.00,,,0.00,pywws,2013-08-12 14:30:00,
2013-08-12 15:35:00,67.5,53.1,29.88,East,90,0.0,1.6,60,0.00,,,0.00,pywws,2013-08-12 14:35:00,
2013-08-12 15:40:00,66.6,52.7,29.88,East,90,1.6,4.5,61,0.00,,,0.00,pywws,2013-08-12 14:40:00,
2013-08-12 15:45:00,66.0,52.2,29.89,East,90,1.6,3.8,61,0.00,,,0.00,pywws,2013-08-12 14:45:00,
2013-08-12 15:50:00,66.0,52.2,29.88,NE,45,0.7,1.6,61,0.00,,,0.00,pywws,2013-08-12 14:50:00,
2013-08-12 16:00:00,67.3,53.8,29.89,NW,315,0.7,3.1,62,0.00,,,0.00,pywws,2013-08-12 15:00:00,
2013-08-12 16:05:00,66.7,52.9,29.89,North,0,0.7,3.1,61,0.00,,,0.00,pywws,2013-08-12 15:05:00,
2013-08-12 16:10:00,66.9,53.0,29.89,East,90,1.6,3.1,61,0.00,,,0.00,pywws,2013-08-12 15:10:00,
2013-08-12 16:15:00,67.5,53.5,29.89,East,90,1.6,3.1,61,0.00,,,0.00,pywws,2013-08-12 15:15:00,
2013-08-12 16:20:00,68.4,54.4,29.89,East,90,1.6,3.8,61,0.00,,,0.00,pywws,2013-08-12 15:20:00,
2013-08-12 16:25:00,68.7,54.7,29.89,NW,315,1.6,4.5,61,0.00,,,0.00,pywws,2013-08-12 15:25:00,
2013-08-12 16:30:00,68.2,54.2,29.90,East,90,0.7,3.1,61,0.00,,,0.00,pywws,2013-08-12 15:30:00,
2013-08-12 16:35:00,66.9,53.0,29.90,East,90,3.1,4.5,61,0.00,,,0.00,pywws,2013-08-12 15:35:00,
2013-08-12 16:40:00,67.1,54.1,29.90,East,90,0.7,2.2,63,0.00,,,0.00,pywws,2013-08-12 15:40:00,
2013-08-12 16:45:00,68.0,52.7,29.90,SE,135,5.4,9.2,58,0.00,,,0.00,pywws,2013-08-12 15:45:00,
2013-08-12 16:50:00,65.7,51.8,29.90,SSE,158,3.1,5.4,61,0.00,,,0.00,pywws,2013-08-12 15:50:00,
2013-08-12 17:00:00,65.3,53.2,29.90,NW,315,0.0,1.6,65,0.00,,,0.00,pywws,2013-08-12 16:00:00,
2013-08-12 17:05:00,65.7,53.1,29.90,West,270,0.7,2.2,64,0.00,,,0.00,pywws,2013-08-12 16:05:00,
2013-08-12 17:10:00,65.1,52.2,29.91,East,90,2.2,4.5,63,0.00,,,0.00,pywws,2013-08-12 16:10:00,
2013-08-12 17:15:00,64.2,51.8,29.91,SE,135,2.2,3.8,64,0.00,,,0.00,pywws,2013-08-12 16:15:00,
2013-08-12 17:20:00,63.9,51.9,29.91,SE,135,0.7,1.6,65,0.00,,,0.00,pywws,2013-08-12 16:20:00,
2013-08-12 17:25:00,63.7,52.5,29.91,NW,315,0.7,2.2,67,0.00,,,0.00,pywws,2013-08-12 16:25:00,
2013-08-12 17:30:00,63.5,51.5,29.91,SW,225,2.2,3.8,65,0.00,,,0.00,pywws,2013-08-12 16:30:00,
2013-08-12 17:35:00,63.7,51.3,29.91,SE,135,1.6,3.8,64,0.00,,,0.00,pywws,2013-08-12 16:35:00,
2013-08-12 17:40:00,64.0,51.6,29.92,SE,135,1.6,3.8,64,0.00,,,0.00,pywws,2013-08-12 16:40:00,
2013-08-12 17:45:00,64.4,52.0,29.92,East,90,1.6,3.8,64,0.00,,,0.00,pywws,2013-08-12 16:45:00,
2013-08-12 17:50:00,65.1,52.2,29.92,ENE,68,1.6,3.1,63,0.00,,,0.00,pywws,2013-08-12 16:50:00,
2013-08-12 18:00:00,64.9,51.6,29.92,NE,45,3.1,6.9,62,0.00,,,0.00,pywws,2013-08-12 17:00:00,
2013-08-12 18:05:00,64.2,51.4,29.92,East,90,1.6,3.8,63,0.00,,,0.00,pywws,2013-08-12 17:05:00,
2013-08-12 18:10:00,64.0,51.6,29.93,SE,135,2.2,5.4,64,0.00,,,0.00,pywws,2013-08-12 17:10:00,
2013-08-12 18:15:00,64.0,51.2,29.94,East,90,3.1,4.5,63,0.00,,,0.00,pywws,2013-08-12 17:15:00,
2013-08-12 18:20:00,63.7,50.4,29.93,East,90,1.6,4.5,62,0.00,,,0.00,pywws,2013-08-12 17:20:00,
2013-08-12 18:25:00,63.3,50.9,29.94,East,90,1.6,3.8,64,0.00,,,0.00,pywws,2013-08-12 17:25:00,
2013-08-12 18:30:00,63.1,51.2,29.94,SE,135,1.6,3.8,65,0.00,,,0.00,pywws,2013-08-12 17:30:00,
2013-08-12 18:35:00,63.1,50.8,29.94,East,90,2.2,5.4,64,0.00,,,0.00,pywws,2013-08-12 17:35:00,
2013-08-12 18:40:00,63.0,50.6,29.94,East,90,2.2,5.4,64,0.00,,,0.00,pywws,2013-08-12 17:40:00,
2013-08-12 18:45:00,63.1,50.8,29.95,East,90,2.2,5.4,64,0.00,,,0.00,pywws,2013-08-12 17:45:00,
2013-08-12 18:50:00,63.0,50.6,29.95,East,90,1.6,3.8,64,0.00,,,0.00,pywws,2013-08-12 17:50:00,
2013-08-12 19:00:00,62.4,50.1,29.95,NW,315,1.6,3.1,64,0.00,,,0.00,pywws,2013-08-12 18:00:00,
2013-08-12 19:05:00,61.7,49.8,29.95,East,90,0.7,2.2,65,0.00,,,0.00,pywws,2013-08-12 18:05:00,
2013-08-12 19:10:00,61.7,49.4,29.95,East,90,2.2,5.4,64,0.00,,,0.00,pywws,2013-08-12 18:10:00,
2013-08-12 19:15:00,61.7,49.4,29.96,East,90,2.2,5.4,64,0.00,,,0.00,pywws,2013-08-12 18:15:00,
2013-08-12 19:20:00,61.7,49.4,29.96,NE,45,0.7,3.8,64,0.00,,,0.00,pywws,2013-08-12 18:20:00,
2013-08-12 19:25:00,61.7,49.8,29.96,East,90,3.1,4.5,65,0.00,,,0.00,pywws,2013-08-12 18:25:00,
2013-08-12 19:30:00,61.7,50.2,29.96,SE,135,2.2,4.5,66,0.00,,,0.00,pywws,2013-08-12 18:30:00,
2013-08-12 19:35:00,61.7,50.2,29.96,NE,45,1.6,4.5,66,0.00,,,0.00,pywws,2013-08-12 18:35:00,
2013-08-12 19:40:00,61.5,50.1,29.96,ESE,112,1.6,3.1,66,0.00,,,0.00,pywws,2013-08-12 18:40:00,
2013-08-12 19:45:00,61.3,49.9,29.97,NE,45,0.7,3.1,66,0.00,,,0.00,pywws,2013-08-12 18:45:00,
2013-08-12 19:50:00,61.2,49.7,29.97,West,270,1.6,3.1,66,0.00,,,0.00,pywws,2013-08-12 18:50:00,
2013-08-12 20:00:00,61.0,49.9,29.97,East,90,0.7,2.2,67,0.00,,,0.00,pywws,2013-08-12 19:00:00,
2013-08-12 20:05:00,60.8,50.2,29.98,NW,315,1.6,3.8,68,0.00,,,0.00,pywws,2013-08-12 19:05:00,
2013-08-12 20:10:00,60.8,49.8,29.98,East,90,2.2,3.8,67,0.00,,,0.00,pywws,2013-08-12 19:10:00,
2013-08-12 20:15:00,60.6,49.6,29.98,East,90,2.2,3.8,67,0.00,,,0.00,pywws,2013-08-12 19:15:00,
2013-08-12 20:20:00,60.6,50.0,29.98,East,90,2.2,3.8,68,0.00,,,0.00,pywws,2013-08-12 19:20:00,
2013-08-12 20:25:00,60.3,50.8,29.99,NE,45,0.7,2.2,71,0.00,,,0.00,pywws,2013-08-12 19:25:00,
2013-08-12 20:30:00,59.5,51.6,29.98,NE,45,0.0,1.6,75,0.00,,,0.00,pywws,2013-08-12 19:30:00,
2013-08-12 20:35:00,59.0,51.8,29.99,East,90,0.0,0.7,77,0.00,,,0.00,pywws,2013-08-12 19:35:00,
2013-08-12 20:40:00,58.5,52.0,29.99,NW,315,0.7,3.1,79,0.00,,,0.00,pywws,2013-08-12 19:40:00,
2013-08-12 20:45:00,58.3,51.8,29.99,East,90,0.7,2.2,79,0.00,,,0.00,pywws,2013-08-12 19:45:00,
2013-08-12 20:50:00,58.1,52.0,29.99,North,0,1.6,3.1,80,0.00,,,0.00,pywws,2013-08-12 19:50:00,
2013-08-12 21:00:00,57.9,51.4,29.99,NE,45,1.6,3.8,79,0.00,,,0.00,pywws,2013-08-12 20:00:00,
2013-08-12 21:05:00,58.1,51.3,30.00,East,90,2.2,4.5,78,0.00,,,0.00,pywws,2013-08-12 20:05:00,
2013-08-12 21:10:00,58.1,51.3,30.00,North,0,2.2,5.4,78,0.00,,,0.00,pywws,2013-08-12 20:10:00,
2013-08-12 21:15:00,58.1,51.3,30.00,East,90,0.7,2.2,78,0.00,,,0.00,pywws,2013-08-12 20:15:00,
2013-08-12 21:20:00,57.9,51.1,30.01,East,90,1.6,3.8,78,0.00,,,0.00,pywws,2013-08-12 20:20:00,
2013-08-12 21:25:00,57.9,51.1,30.01,SE,135,0.0,2.2,78,0.00,,,0.00,pywws,2013-08-12 20:25:00,
2013-08-12 21:30:00,57.7,51.3,30.01,SE,135,0.0,0.7,79,0.00,,,0.00,pywws,2013-08-12 20:30:00,
2013-08-12 21:35:00,57.4,51.3,30.01,NE,45,0.7,2.2,80,0.00,,,0.00,pywws,2013-08-12 20:35:00,
2013-08-12 21:40:00,57.4,51.6,30.01,East,90,0.7,3.1,81,0.00,,,0.00,pywws,2013-08-12 20:40:00,
2013-08-12 21:45:00,57.4,51.6,30.01,NW,315,0.7,3.1,81,0.00,,,0.00,pywws,2013-08-12 20:45:00,
2013-08-12 21:50:00,57.2,51.8,30.01,North,0,0.0,1.6,82,0.00,,,0.00,pywws,2013-08-12 20:50:00,
2013-08-12 22:00:00,57.0,51.6,30.02,NE,45,0.7,3.1,82,0.00,,,0.00,pywws,2013-08-12 21:00:00,
2013-08-12 22:05:00,57.0,51.9,30.02,East,90,0.7,3.1,83,0.00,,,0.00,pywws,2013-08-12 21:05:00,
2013-08-12 22:10:00,56.8,51.7,30.02,NE,45,0.7,4.5,83,0.00,,,0.00,pywws,2013-08-12 21:10:00,
2013-08-12 22:15:00,56.7,51.6,30.02,NW,315,0.0,1.6,83,0.00,,,0.00,pywws,2013-08-12 21:15:00,
2013-08-12 22:20:00,56.5,51.7,30.02,North,0,0.0,0.7,84,0.00,,,0.00,pywws,2013-08-12 21:20:00,
2013-08-12 22:25:00,56.3,51.5,30.02,NE,45,2.2,4.5,84,0.00,,,0.00,pywws,2013-08-12 21:25:00,
2013-08-12 22:30:00,56.3,51.8,30.02,East,90,0.0,1.6,85,0.00,,,0.00,pywws,2013-08-12 21:30:00,
2013-08-12 22:35:00,55.9,51.5,30.02,West,270,0.7,3.1,85,0.00,,,0.00,pywws,2013-08-12 21:35:00,
2013-08-12 22:40:00,56.1,52.0,30.02,NE,45,0.7,3.1,86,0.00,,,0.00,pywws,2013-08-12 21:40:00,
2013-08-12 22:45:00,55.9,51.8,30.02,SE,135,0.7,3.1,86,0.00,,,0.00,pywws,2013-08-12 21:45:00,
2013-08-12 22:50:00,55.9,51.8,30.03,NE,45,0.7,3.1,86,0.00,,,0.00,pywws,2013-08-12 21:50:00,
2013-08-12 23:00:00,55.8,51.6,30.03,North,0,0.0,2.2,86,0.00,,,0.00,pywws,2013-08-12 22:00:00,
2013-08-12 23:05:00,55.6,51.8,30.03,NE,45,0.0,1.6,87,0.00,,,0.00,pywws,2013-08-12 22:05:00,
2013-08-12 23:10:00,55.6,52.1,30.03,East,90,1.6,3.8,88,0.00,,,0.00,pywws,2013-08-12 22:10:00,
2013-08-12 23:15:00,55.4,51.9,30.03,NE,45,0.7,3.8,88,0.00,,,0.00,pywws,2013-08-12 22:15:00,
2013-08-12 23:20:00,55.4,51.9,30.03,NE,45,0.7,3.1,88,0.00,,,0.00,pywws,2013-08-12 22:20:00,
2013-08-12 23:25:00,55.4,51.9,30.03,West,270,0.7,3.1,88,0.00,,,0.00,pywws,2013-08-12 22:25:00,
2013-08-12 23:30:00,55.4,52.2,30.04,East,90,0.7,2.2,89,0.00,,,0.00,pywws,2013-08-12 22:30:00,
2013-08-12 23:35:00,55.4,52.2,30.03,East,90,1.6,3.8,89,0.00,,,0.00,pywws,2013-08-12 22:35:00,
2013-08-12 23:40:00,55.6,52.4,30.03,NE,45,0.7,3.1,89,0.00,,,0.00,pywws,2013-08-12 22:40:00,
2013-08-12 23:45:00,55.6,52.4,30.03,East,90,1.6,3.1,89,0.00,,,0.00,pywws,2013-08-12 22:45:00,
2013-08-12 23:50:00,55.6,52.4,30.03,NE,45,0.0,1.6,89,0.00,,,0.00,pywws,2013-08-12 22:50:00,